Vorticity
5 5 6 5 4 4 5 5 6 7 9 9 9 8 7 7 5 5 4 5 3 3 4 4 3 2 2 2 2 2 3 3 3 3 3 3 4 5 5 7 6 6 5
4 6 6 6 5 4 3 3 4 5 6 8 9 11 10 8 7 5 5 4 4 3 4 3 3 3 2 2 2 2 3 4 4 5 5 5 4 4 5 6 7 7 5
5 5 7 7 7 6 5 4 4 4 5 5 6 7 9 12 10 7 6 5 4 4 4 3 3 3 3 2 3 3 3 4 5 7 7 6 6 4 5 5 7 7 6
8 10 10 8 7 8 6 6 6 5 5 5 5 6 6 7 10 12 10 8 7 5 5 5 3 3 3 2 2 3 4 4 6 8 6 8 7 6 6 5 7 6 7
9 6 7 7 6 7 8 6 5 4 4 6 7 9 10 8 8 9 12 13 11 10 8 6 5 4 4 3 3 2 4 5 7 6 8 8 8 7 8 7 7 6 7
10 10 4 4 5 6 7 6 4 5 6 7 7 8 10 10 11 10 10 9 14 14 11 10 8 7 5 5 4 4 4 7 8 7 8 10 8 8 6 7 7 7 7
5 7 2 4 6 7 6 5 4 6 6 5 6 8 8 9 11 12 13 11 9 11 13 14 13 11 9 8 5 6 7 9 10 8 9 9 7 6 6 7 6 7 7
9 6 5 2 5 7 7 6 6 6 6 5 5 6 7 6 13 12 11 13 12 11 10 16 16 17 16 13 12 10 9 11 8 8 9 9 8 6 6 5 6 6 8
5 3 7 5 6 2 3 4 7 8 8 5 5 3 3 4 8 11 13 13 13 13 12 9 11 14 12 12 11 11 11 10 8 7 9 9 8 5 5 7 7 8 10
2 8 6 10 5 6 7 7 5 11 12 7 4 3 2 4 4 4 8 11 12 11 12 12 9 11 11 12 8 9 10 9 7 7 9 6 8 6 5 6 6 8 9
7 6 14 10 13 6 5 6 9 13 13 6 4 3 3 3 4 5 4 7 7 12 15 14 13 10 10 10 8 8 7 9 8 7 9 7 7 6 7 6 7 9 4
11 10 10 11 11 7 12 13 9 12 12 7 4 4 4 5 4 7 6 5 9 7 6 14 18 13 9 9 15 9 8 13 9 10 8 8 8 7 6 5 6 7 6
13 14 13 13 12 12 11 11 10 9 9 6 6 6 6 5 7 5 5 6 7 2 5 4 16 22 13 10 8 9 11 13 11 9 7 8 6 6 5 5 5 6 5
11 11 11 11 11 8 8 5 3 4 5 5 7 8 8 8 9 7 4 6 5 4 6 7 12 18 25 11 8 14 15 10 9 5 4 7 6 8 5 5 4 5 2
6 8 8 9 9 10 9 5 6 7 8 9 8 6 5 5 6 5 9 7 7 6 3 2 9 10 21 15 8 1 0 16 10 7 4 7 7 6 5 5 4 3 2
6 4 3 3 3 6 8 9 9 8 8 10 10 7 7 7 9 10 7 9 8 6 8 4 2 10 11 21 11 9 11 7 13 7 5 7 6 4 3 6 4 4 2
13 10 9 8 6 7 9 10 7 10 12 10 9 9 9 6 6 7 9 7 10 -1 8 12 6 -0 11 17 8 17 5 -4 10 11 10 11 8 4 7 9 5 5 3
7 7 9 16 16 10 4 2 6 6 6 8 9 11 9 7 6 7 9 10 8 9 8 15 6 2 11 8 20 10 14 -4 8 15 9 4 11 21 -11 11 5 5 3
14 12 14 14 9 12 16 16 13 11 8 3 7 11 14 18 19 11 9 9 14 14 24 10 11 0 -13 5 13 10 15 -3 7 15 3 2 4 8 2 10 5 2 1
14 14 15 16 16 19 19 16 17 12 10 11 9 6 6 2 7 8 16 12 2 5 6 20 8 -1 14 14 -7 15 3 8 11 -3 7 3 10 1 7 9 5 1 5
9 5 5 8 10 10 6 9 13 17 17 15 12 13 9 8 9 10 11 20 6 7 1 2 16 6 4 8 25 0 21 6 13 15 8 3 18 11 11 6 5 -4 19
10 13 13 14 16 18 16 13 13 14 12 11 22 18 20 16 9 9 11 10 10 16 19 12 73 -1 2 9 15 -0 15 24 13 1 10 11 7 -1 7 7 4 6 25
9 9 8 9 10 11 13 15 10 8 9 11 18 16 19 16 12 7 6 15 19 15 8 16 12 1 3 18 -4 24 16 27 46 1 -1 18 4 1 8 8 -3 27 13
9 10 11 11 10 10 9 8 10 12 13 8 9 15 14 11 18 17 7 8 17 14 9 11 17 9 23 6 35 7 40 11 17 1 -5 7 9 14 5 4 14 19 13
10 9 10 12 14 13 11 9 9 8 11 13 13 13 12 13 16 10 22 12 11 19 15 4 22 7 28 11 11 29 32 1 -5 11 7 5 5 3 5 2 24 14 15
12 13 13 13 11 11 10 10 11 13 12 13 11 10 18 11 18 12 -9 23 38 2 10 10 11 2 63 3 13 20 15 14 -5 35 -3 16 5 4 -1 23 16 14 13
Height
3127 3126 3125 3124 3124 3123 3122 3120 3118 3118 3118 3117 3116 3115 3113 3112 3111 3111 3110 3111 3110 3109 3108 3107 3106 3105 3104 3104 3103 3102 3101 3099 3097 3095 3093 3092 3090 3087 3084 3082 3079 3077 3075
3123 3122 3122 3121 3120 3119 3118 3117 3117 3115 3114 3113 3112 3110 3109 3108 3107 3106 3106 3105 3105 3104 3104 3103 3102 3101 3099 3098 3097 3097 3095 3093 3092 3090 3088 3086 3084 3081 3079 3077 3075 3072 3069
3120 3119 3118 3117 3116 3116 3116 3115 3113 3112 3111 3109 3107 3105 3104 3103 3102 3100 3099 3099 3099 3099 3099 3098 3097 3096 3094 3092 3091 3090 3088 3087 3085 3083 3081 3079 3077 3075 3073 3070 3067 3065 3064
3117 3115 3114 3114 3113 3112 3111 3110 3109 3108 3106 3103 3102 3100 3099 3097 3096 3095 3093 3093 3092 3092 3092 3092 3091 3089 3088 3086 3084 3083 3081 3080 3078 3076 3074 3071 3069 3067 3066 3063 3060 3059 3057
3113 3112 3111 3110 3109 3107 3107 3106 3105 3103 3101 3099 3096 3094 3093 3091 3089 3088 3086 3084 3084 3084 3083 3084 3084 3083 3081 3080 3077 3075 3073 3071 3070 3067 3066 3063 3061 3060 3057 3055 3053 3052 3050
3109 3107 3107 3105 3103 3102 3102 3100 3099 3097 3095 3093 3089 3087 3086 3084 3082 3079 3078 3077 3076 3074 3073 3074 3074 3073 3072 3071 3069 3067 3065 3063 3062 3059 3057 3055 3053 3051 3049 3047 3046 3044 3042
3105 3103 3101 3100 3098 3096 3095 3094 3093 3092 3090 3087 3082 3081 3078 3076 3074 3073 3071 3069 3067 3065 3064 3063 3062 3062 3062 3061 3060 3058 3056 3054 3053 3051 3048 3046 3044 3043 3041 3039 3038 3036 3034
3101 3098 3096 3095 3093 3090 3089 3088 3086 3084 3083 3082 3078 3073 3071 3071 3068 3066 3062 3061 3059 3057 3056 3054 3052 3051 3051 3051 3050 3050 3047 3046 3044 3042 3039 3038 3036 3034 3032 3031 3029 3027 3025
3094 3091 3089 3087 3086 3084 3082 3080 3079 3077 3075 3075 3072 3069 3063 3060 3057 3057 3054 3051 3049 3046 3044 3044 3043 3041 3040 3039 3039 3039 3039 3037 3034 3032 3031 3029 3027 3025 3024 3023 3021 3018 3016
3088 3087 3084 3081 3079 3077 3075 3074 3072 3070 3067 3067 3064 3063 3059 3056 3049 3042 3044 3042 3038 3036 3035 3034 3033 3031 3030 3028 3027 3028 3028 3027 3025 3024 3022 3019 3019 3017 3016 3014 3012 3009 3007
3080 3079 3077 3074 3072 3069 3067 3065 3063 3060 3059 3056 3056 3054 3051 3050 3047 3038 3030 3033 3027 3028 3025 3024 3023 3020 3019 3018 3017 3017 3017 3017 3016 3014 3013 3011 3010 3008 3007 3005 3003 3000 2997
3071 3068 3067 3065 3064 3061 3058 3056 3054 3052 3050 3047 3047 3045 3041 3038 3037 3033 3027 3026 3020 3018 3014 3012 3011 3011 3009 3007 3006 3007 3006 3006 3005 3004 3003 3003 3001 3000 2998 2996 2994 2992 2988
3063 3060 3057 3055 3054 3052 3049 3047 3044 3042 3041 3038 3037 3035 3033 3029 3027 3023 3019 3017 3011 3011 3006 3003 3002 3000 2999 2998 2997 2996 2995 2995 2994 2994 2994 2992 2991 2990 2989 2987 2984 2981 2977
3055 3053 3049 3046 3044 3042 3040 3038 3035 3033 3031 3028 3025 3024 3022 3020 3018 3014 3010 3007 3001 3000 2995 2994 2992 2990 2989 2989 2987 2986 2985 2984 2984 2984 2983 2981 2981 2980 2978 2977 2974 2970 2966
3047 3044 3041 3039 3036 3033 3030 3027 3024 3022 3020 3018 3015 3012 3009 3008 3006 3003 3002 2999 2994 2987 2984 2983 2980 2980 2977 2977 2977 2976 2974 2975 2973 2973 2973 2972 2971 2970 2967 2966 2963 2959 2955
3039 3036 3031 3027 3025 3023 3020 3016 3013 3011 3007 3005 3002 2998 2997 2995 2993 2991 2989 2988 2984 2979 2972 2976 2972 2969 2967 2965 2966 2966 2965 2964 2964 2963 2962 2962 2960 2959 2957 2955 2952 2948 2944
3028 3025 3021 3017 3013 3011 3009 3004 3000 2998 2994 2991 2988 2985 2982 2981 2979 2977 2976 2975 2972 2968 2963 2962 2961 2960 2957 2956 2956 2952 2953 2954 2953 2953 2952 2952 2950 2948 2947 2944 2941 2937 2932
3018 3014 3010 3005 3001 2998 2996 2992 2988 2986 2981 2976 2973 2970 2967 2967 2965 2963 2962 2960 2958 2956 2952 2949 2950 2949 2946 2945 2944 2941 2940 2941 2942 2941 2941 2941 2940 2938 2936 2932 2929 2925 2920
3008 3003 2999 2994 2989 2986 2982 2980 2977 2973 2968 2963 2959 2956 2955 2954 2952 2951 2947 2943 2941 2939 2938 2935 2935 2936 2933 2935 2933 2930 2927 2928 2929 2930 2930 2929 2929 2926 2924 2921 2918 2913 2908
2996 2993 2988 2984 2978 2974 2970 2967 2962 2958 2952 2947 2946 2944 2943 2941 2938 2936 2933 2929 2928 2926 2923 2921 2920 2921 2919 2918 2919 2918 2915 2916 2915 2917 2919 2918 2916 2915 2913 2909 2906 2901 2895
2984 2981 2976 2972 2967 2962 2958 2954 2949 2943 2936 2933 2932 2930 2928 2926 2924 2922 2919 2917 2915 2911 2910 2906 2903 2904 2903 2903 2902 2903 2901 2902 2902 2903 2904 2906 2905 2903 2901 2898 2894 2889 2882
2969 2966 2963 2958 2953 2950 2947 2943 2938 2930 2926 2922 2919 2917 2914 2912 2911 2908 2906 2903 2901 2898 2896 2893 2887 2882 2886 2888 2888 2888 2887 2887 2885 2891 2893 2894 2892 2891 2889 2886 2881 2876 2870
2955 2950 2945 2942 2938 2935 2932 2929 2923 2917 2914 2910 2906 2903 2899 2898 2896 2893 2891 2888 2886 2884 2883 2877 2874 2874 2871 2873 2875 2874 2873 2875 2874 2878 2880 2881 2880 2879 2877 2874 2869 2863 2859
2944 2938 2934 2930 2925 2922 2918 2912 2907 2903 2900 2899 2895 2891 2886 2883 2882 2878 2875 2872 2869 2866 2867 2867 2864 2861 2859 2854 2854 2860 2860 2862 2864 2865 2866 2868 2868 2867 2865 2862 2857 2852 2848
2930 2924 2920 2916 2913 2910 2906 2900 2895 2890 2888 2886 2881 2879 2875 2871 2868 2865 2860 2857 2854 2852 2852 2853 2851 2849 2844 2846 2846 2845 2847 2852 2852 2855 2855 2856 2858 2857 2854 2851 2846 2842 2838
2917 2913 2908 2905 2902 2898 2893 2888 2883 2877 2874 2873 2869 2865 2862 2857 2853 2852 2848 2843 2839 2837 2837 2838 2837 2835 2833 2832 2833 2833 2837 2839 2842 2841 2846 2847 2847 2846 2842 2840 2836 2831 2829